Location: Bailleul
(50.3375°N, 2.8513°E)
Time: 09:25:41
(UTC+00:00)

Centaur D AC-29 - Pass Details

Date: 16 June 2021
Orbit: 526 x 36311 km, 26.6° (Epoch: 25 July)

Event Time Altitude Azimuth Distance (km) Brightness Sun altitude
Rises 20:47:54 0° 263° (W) 22,670 9.5 -6.1°
Reaches altitude 10° 21:33:07 10° 256° (WSW) 11,259 7.7 -10.4°
Maximum altitude 21:53:07 20° 220° (SW) 4,480 5.2 -11.9°
Enters shadow 21:58:56 12° 178° (S) 3,366 4.2 -12.3°
